Regional Weather Roundup
Issued by NWS

Home | Current Version | Previous Version | Graphics & Text | Print | Product List | Glossary Off
Versions: 1 2 3 4 5 6 7 8 9 10 11 12 13 14 15 16 17 18 19 20 21 22 23 24 25 26 27 28 29 30 31 32 33 34 35 36 37 38 39 40 41 42 43 44 45 46 47 48 49 50

273
ASUS43 KTOP 241259
RWRKS

WEATHER ROUNDUP FOR KANSAS
NATIONAL WEATHER SERVICE GOODLAND KS
700 AM CST SAT FEB 24 2018

NOTE:  "FAIR" INDICATES FEW OR NO CLOUDS BELOW 12,000 FEET WITH NO
SIGNIFICANT WEATHER AND/OR OBSTRUCTIONS TO VISIBILITY.

KSZ001>006-013>018-027>032-041>047-241400-
NORTHWEST KANSAS

CITY           SKY/WX    TMP DP  RH WIND       PRES   REMARKS
GOODLAND       CLOUDY    25  24  96 SW6       29.82F FOG
HAYS           CLOUDY    28  28 100 SE12      29.92S FOG     WCI  18
HILL CITY      CLOUDY    26  26 100 E6        29.92R FOG
RUSSELL        CLOUDY    31  30  96 E5        29.93S FOG
$$

KSZ061>065-074>080-084>089-241400-
SOUTHWEST KANSAS

CITY           SKY/WX    TMP DP  RH WIND       PRES   REMARKS
DODGE CITY     CLOUDY    28  26  92 E3        29.89F
GARDEN CITY    CLOUDY    27  26  96 S5        29.87F
GREAT BEND     MIX PCPN  30  29  96 CALM      29.94F FOG
LIBERAL        CLOUDY    28  27  96 N7        29.89F FOG
$$

KSZ066>073-081>083-090>101-241400-
SOUTHEAST KANSAS

CITY           SKY/WX    TMP DP  RH WIND       PRES   REMARKS
CHANUTE        CLOUDY    37  36  96 CALM      29.93R FOG
COFFEYVILLE    FOG       38  38 100 CALM      29.91F VSB 3/4
HUTCHINSON     CLOUDY    32  32 100 CALM      29.95F FOG
MEDICINE LODGE   N/A     31  31 100 N6        29.92F
NEWTON           N/A    N/A N/A N/A MISG        N/A
PARSONS        FOG       37  37 100 N3        29.92F VSB 1
WICHITA INTL   DRIZZLE   33  33 100 NW6       29.94F FOG
WICHITA JABRA  CLOUDY    32  32 100 NW3       29.94F FOG
WICHITA MCCONL CLOUDY    34  34 100 N3        29.94  FOG
WINFIELD       FOG       34  34 100 NW6       29.94S VSB 1
$$

KSZ007>012-019>026-033>040-048>060-102>105-241400-
NORTHEAST KANSAS

CITY           SKY/WX    TMP DP  RH WIND       PRES   REMARKS
CONCORDIA      CLOUDY    26  26 100 NE6       29.94F FOG
EMPORIA        CLOUDY    32  32 100 CALM      29.94R FOG
LAWRENCE       CLOUDY    35  34  96 E6        29.95S FOG
MANHATTAN      CLOUDY    33  31  92 NE8       29.93F FOG
OLATHE IND     CLOUDY    35  34  96 E12       29.93S FOG     WCI  27
OLATHE EXE     CLOUDY    34  34 100 E13       29.92F FOG     WCI  25
SALINA         CLOUDY    33  32  96 NE3       29.96R FOG
TOPEKA BILLARD CLOUDY    34  34 100 E6        29.94F FOG
TOPEKA FORBES  CLOUDY    35  34  96 E6        29.93S FOG
$$




USA.gov is the U.S. government's official web portal to all federal, state and local government web resources and services.